Regional Weather Roundup
Issued by NWS

Home | Current Version | Previous Version | Text Only | Print | Product List | Glossary On
Versions: 1 2 3 4 5 6 7 8 9 10 11 12 13 14 15 16 17 18 19 20 21 22 23 24 25 26 27 28 29 30 31 32 33 34 35 36 37 38 39 40 41 42 43 44 45 46 47 48 49 50
000
ASUS45 KSLC 281410
RWRUT

UTAH REGIONAL WEATHER ROUNDUP
NATIONAL WEATHER SERVICE SALT LAKE CITY UT
800 AM MDT WED SEP 28 2016

UTZ001>011-023>025-281500-

NORTHERN UTAH

CITY           SKY/WX    TMP DP  RH WIND       PRES   REMARKS
BRIGHAM CITY     N/A     47  45  91 CALM      30.19R
DUGWAY         CLEAR     45  44  97 SE2       30.20
HILL AFB       CLEAR     54  42  62 E18       30.20R
LOGAN          CLEAR     45  42  89 CALM      30.21R
OGDEN          CLEAR     54  43  66 SW7       30.18R
PROVO AIRPORT  CLEAR     48  43  81 CALM      30.22R
SALT LAKE CITY CLEAR     55  47  74 E8        30.18R
VERNAL         CLEAR     45  42  89 CALM      30.30R FOG
WENDOVER       PTCLDY    50  43  76 CALM      30.18R
HEBER CITY     CLEAR     39  37  93 CALM      30.29R
WEST JORDAN    CLEAR     53  46  76 SW5       30.20R

$$

UTZ012>022-026-027-281500-

SOUTHERN/CENTRAL UTAH

CITY           SKY/WX    TMP DP  RH WIND       PRES   REMARKS
BLANDING       CLEAR     49  33  54 N5        30.36R
BRYCE CANYON   CLOUDY    41  35  79 W3        30.37R
CEDAR CITY     LGT RAIN  50  40  68 NW5       30.23R
DELTA          CLEAR     46  41  81 SE7       30.22R
MILFORD        MOCLDY    49  34  56 S5        30.22R
MOAB/CYNLANDS  CLEAR     54  39  57 CALM      30.21R
PRICE          CLEAR     52  38  58 N7        30.28R
ST GEORGE      MOSUNNY   64  41  42 S5        30.13R

$$

REGIONAL REPORTS     COLORADO/ARIZONA

CITY           SKY/WX    TMP DP  RH WIND       PRES   REMARKS
CRAIG, CO      CLOUDY    36  33  89 CALM      30.36R
GRAND JUNCTION CLEAR     54  38  54 SE7       30.25R
RIFLE          CLOUDY    47  41  80 CALM      30.32R
MONTROSE       CLOUDY    46  37  71 SE6       30.33R
CORTEZ         CLEAR     42  37  82 CALM      30.31R
PAGE, AZ       CLOUDY    64  41  42 CALM      30.18R
GRAND CANYON   CLEAR     45  40  82 CALM      30.30R
KINGMAN        MOCLDY    66  44  45 NE6       30.09R
FLAGSTAFF      PTCLDY    41  40  96 CALM      30.31R

$$

REGIONAL REPORTS    NEVADA/IDAHO/WYOMING

CITY           SKY/WX    TMP DP  RH WIND       PRES   REMARKS
LAS VEGAS, NV  CLOUDY    73  51  46 S3        30.03S
ELY            CLEAR     38  29  70 S9        30.28R WCI  31
ELKO           PTCLDY    44  36  73 E5        30.19R
POCATELLO, ID  CLEAR     41  40  96 CALM      30.20R
BURLEY         CLEAR     47  43  86 NE5       30.14R
EVANSTON, WY   CLOUDY    48  35  60 E12       30.35R
ROCK SPRINGS   CLOUDY    48  38  68 CALM      30.37R

$$



USA.gov is the U.S. government's official web portal to all federal, state and local government web resources and services.